Regional Weather Roundup
Issued by NWS Wakefield, VA

Home | Current Version | Previous Version | Graphics & Text | Print | Product List | Glossary On
Versions: 1 2 3 4 5 6 7 8 9 10 11 12 13 14 15 16 17 18 19 20 21 22 23 24 25 26 27
000
ASUS41 KAKQ 021015
RWRAKQ

REGIONAL WEATHER ROUNDUP
NATIONAL WEATHER SERVICE WAKEFIELD VA
500 AM EST FRI DEC 02 2016

Note: "fair" indicates few or no clouds below 12,000 feet with no
significant weather and/or obstructions to visibility. * = Denotes
station may not report precipitation (e.g., rain,snow,etc.),
thunder or fog.

VAZ042-051-052>054-056-021100-
NORTHERN VIRGINIA

CITY           SKY/WX    TMP DP  RH WIND       PRES   REMARKS
WASH NATIONAL  PTCLDY    44  27  51 NW8       30.02R
DULLES         MOCLDY    43  26  51 NW10      30.01S
FORT BELVOIR   PTCLDY    37  29  71 CALM      30.02R
QUANTICO       CLEAR     36  31  82 NW5       30.04R
FREDERICKSBRG* CLEAR     32  32 100 CALM      30.03S
STAFFORD*      CLEAR     29  29 100 CALM      30.06S
WARRENTON      MOCLDY    30  26  83 CALM      30.01S
CULPEPER*      PTCLDY    32  29  89 CALM      30.03R
MANASSAS*      PTCLDY    36  30  80 CALM      30.03R
LEESBURG*      CLOUDY    45  32  61 W14G20    30.02S
WINCHESTER     CLOUDY    41  27  56 W16       30.01R
FRONT ROYAL*   CLOUDY    43  28  56 W6        30.01R
LURAY*         PTSUNNY   43  30  61 W7G17     30.01R
$$

VAZ048-049-060>072-079>083-021100-
CENTRAL AND SOUTH CENTRAL VIRGINIA

CITY           SKY/WX    TMP DP  RH WIND       PRES   REMARKS
RICHMOND       PTCLDY    34  30  85 CALM      30.03S
CHESTERFIELD*  FAIR      34  16  47 CALM      30.05R
PETERSBURG*    PTCLDY    29  28  94 CALM      30.05R
HANOVER        CLEAR     32  29  88 CALM      30.05R
TAPPAHANNOCK*  CLEAR     33  33  99 CALM      30.03S
QUINTON*       FAIR      33  32  96 CALM      30.03R
CHARLOTTSVILLE PTCLDY    36  27  69 CALM      30.01R
GORDONSVILLE*  FAIR      29  28  95 CALM      30.02R
ORANGE*          N/A     30  30 100 CALM      30.03S
LOUISA*        CLEAR     32  30  93 CALM      30.01S
BUMPASS*       FAIR      30  29  97 CALM      30.02S
FARMVILLE*     CLEAR     32  32  99 CALM      30.03R
CREWE*         FAIR      32  32 100 CALM      30.04R
FORT PICKETT*  FAIR      32  29  89 CALM      30.04R
CHASE CITY*    FAIR      31  30  94 CALM      30.05R
CLARKSVILLE*   FAIR      32  32 100 CALM      30.05R
SOUTH HILL*    CLEAR     29  29  99 CALM      30.11R
LAWRENCEVILLE* FAIR      32  31  96 CALM      30.05R
EMPORIA*       PTCLDY    30  30 100 CALM      30.07R
$$

VAZ088>098-021100-
SOUTHEAST VIRGINIA

CITY           SKY/WX    TMP DP  RH WIND       PRES   REMARKS
NORFOLK        CLEAR     47  33  58 NW5       30.02S
VIRGINIA BEACH CLEAR     43  31  62 N6        30.02R
NORFOLK NAVAL  CLEAR     43  34  70 NW8       30.05R
WEST POINT*    PTCLDY    32  31  96 CALM      30.05S
SALUDA*        FAIR      37  33  87 CALM      30.03R
NEWPORT NEWS   PTCLDY    35  32  88 CALM      30.04R
LANGLEY AFB    PTCLDY    36  32  86 W5        30.03R
FORT EUSTIS    PTCLDY    41  33  73 CALM      30.02R
WILLIAMSBURG*  PTCLDY    37  36  93 CALM      30.05R
HR EXEC AP*    FAIR      30  27  86 CALM      30.03R
FRANKLIN*      CLEAR     33  31  94 CALM      30.06R
US460-WAKEFLD  PTCLDY    32  30  92 CALM      30.05R
$$

VAZ020-022-025-037-045-021100-
WEST CENTRAL AND SOUTHWEST VIRGINIA

CITY           SKY/WX    TMP DP  RH WIND       PRES   REMARKS
STAUNTON*      CLOUDY    38  29  71 W3        30.02S
WAYNESBORO*    FAIR      36  27  71 SW5       30.00S
HOT SPRINGS VA NOT AVBL
LYNCHBURG      CLEAR     29  27  92 VRB3      30.03S
DANVILLE       PTCLDY    30  29  96 CALM      30.06R
SOUTH BOSTON*  FAIR      31  30  95 CALM      30.06R
MARTINSVILLE   CLEAR     31  28  89 CALM      30.08R
ROANOKE        CLEAR     42  27  55 NW6       30.05S
BLACKSBURG     CLEAR     36  29  77 W8        30.06R
DUBLIN*        CLEAR     37  29  74 W7        30.06R
MARION*        CLEAR     32  30  94 SW9       30.08R
HILLSVILLE*    CLEAR     33  28  79 W5        30.02R
RICHLANDS*     FAIR      32  28  83 W8        30.07R
WISE*          PTCLDY    32  27  80 W5        30.09R
ABINGDON*      CLEAR     30  29  95 W3        30.10R
$$

MDZ021>025-VAZ099-100-021100-
SOUTHERN MARYLAND AND THE DELMARVA PENINSULA

CITY           SKY/WX    TMP DP  RH WIND       PRES   REMARKS
PATUXENT RIVER CLEAR     37  29  72 SW5       30.01S
BAY BRIDGE APT CLEAR     45  28  53 W12       30.00R
LEONARDTOWN    CLEAR     34  30  86 CALM      30.03S
DOVER          PTCLDY    42  30  62 NW7       29.96S
GEORGETOWN     PTCLDY    40  31  70 W5        30.00R
EASTON         PTCLDY    45  27  50 NW13      30.03S
CAMBRIDGE      PTCLDY    43  28  56 NW9G18    30.00S
SALISBURY      PTCLDY    33  30  88 CALM      30.01R
OCEAN CITY     PTCLDY    33  31  92 CALM      30.00R
WALLOPS ISLAND CLEAR     39  33  79 NW7       30.02R
ACCOMACK*      PTCLDY    46  32  60 NW8       30.02R
$$

NCZ012>017-030>032-021100-
NORTH CENTRAL AND EASTERN NORTH CAROLINA

CITY           SKY/WX    TMP DP  RH WIND       PRES   REMARKS
ROANOKE RAPIDS FAIR      34  32  93 CALM      30.06R
RALEIGH        CLEAR     36  30  79 CALM      30.07R
ELIZABETH CITY PTCLDY    38  34  85 NW6       30.04R
AHOSKIE*       CLEAR     35  33  92 CALM      30.06R
EDENTON*       PTCLDY    41  36  82 CALM      30.05R
CURRITUCK*     PTCLDY    44  37  78 CALM      30.03S
KILL DEVIL HLS PTCLDY    49  42  74 CALM      30.00R
MANTEO         PTCLDY    49  40  71 N12       30.01R
CAPE HATTERAS  CLEAR     51  45  79 VRB5      30.00R
TARBORO*       NOT AVBL
GOLDSBORO      CLEAR     42  32  66 CALM      30.05R
WASHINGTON     CLEAR     39  33  78 CALM      30.06R
GREENVILLE     CLEAR     37  34  87 CALM      30.07R
NEW BERN       CLEAR     44  34  67 N7        30.06R
WILMINGTON     CLEAR     43  36  76 N6        30.05R
$$

VAZ048-021100-
ELSEWHERE

CITY           SKY/WX    TMP DP  RH WIND       PRES   REMARKS
HARRISBURG PA  MOCLDY    42  29  59 W14       29.94S
BALTIMORE      PTCLDY    42  26  53 W9        29.99S
ANNAPOLIS      CLEAR     46  26  45 W12       29.99R
ANDREWS AFB    PTCLDY    42  26  52 NW9       30.00R
PHILADELPHIA   PTCLDY    40  28  62 W10       29.96R
HENDERSON NC   CLEAR     31  28  89 CALM      30.05R
GREENSBORO     CLEAR     41  30  65 NW5       30.05R
ROCKY MOUNT    CLEAR     33  33 100 CALM      30.07R
$$

VAZ100-021100-
MARINE

STATION/POSITION TIME  TEMP    WIND        PRES    WAVE   SWELL
                       AIR SEA DIR/SP/G            HT/PER HT/PER
                 (UTC) (F)     (DEG/KT/KT) (MB)    (FT/S) (FT/S)
BRANDYWINE LGT   0948   45     310/ 18/ 22   N/A
CAPE MAY NJ      0948   45 50  300/ 17/ 23 1014.3R
LEWES DE         0948   42 51  260/  7/  9 1015.0F
OCEAN-CITY-INLET 0948   39 52  290/  5/  6 1016.2R
WACHAPREAGUE VA  0942   44 55  290/  1/  6 1016.4R
THOMAS POINT MD  1000   45 51  310/ 15/ 16   N/A
GOOSES REEF MD   1000   46 51  310/  8/ 12 1017.0    1/ 3
COVE POINT MD    0942   44     320/  6/  9 1016.9R
SOLOMONS ISLAND  0942   42 52  280/  4/  5   N/A
BISHOPS HEAD MD  0948   44 50  320/  7/ 10 1016.5R
PINEY POINT MD   0948          350/ 10/ 11   N/A
POTOMAC MD       1000   45 52  340/  8/ 10 1015.8    1/ 2
CAMBRIDGE MD     0948   46 49  300/ 13/ 20 1015.3S
LEWISETTA VA     0942   41 53  290/  4/  5 1016.3S
RAPPAHANNOCK LGT 0948          320/ 15/ 17 1017.1R
STINGRAY PT      1000   46     310/  8/ 12 1017.1    1/ 2
YORK RVR RNG VA  0942   44     320/  9/ 10 1016.5R
YORKTOWN VA      0942   43 53  280/  5/  6 1016.6R
JAMESTOWN VA     1000   44 54  360/  2/  4   N/A
DOMINION TERM VA 0942   47     350/  2/  5 1016.9R
KIPTOPEKE VA     0948      54   10/  8/ 11   N/A
CHES BAY BRIDGE  0948   48 54  350/ 13/ 15 1016.5R
CAPE HENRY VA    0948   49     340/ 13/ 17   N/A
WILLOUBY STN VA  0948   45     330/  8/  8 1017.7R
S CRANEY ISL VA  0942   45     320/  4/  6 1016.6R
CAPE HENRY BUOY  0942      56                N/A     4/ 5
1ST LANDING BUOY 1000   49 54              1017.0    2/ 3
CAPE CHARLES BUO 0956      56                N/A     3/ 5
OFFSHORE WE BUOY 0951      57                N/A     4/ 5
64NM E OF VA BCH 0950   51 59  360/ 19/ 23 1015.3R   5/ 6   2/ 8
DUCK PIER NC     0948   51 57  360/ 13/ 16 1015.5R
44100 DUCK FRF   0935      57                N/A     4/ 5
OREGON INLET NC  0942   51 60  360/ 10/ 15 1015.8R
HATTERAS NC      0948   53 63  340/ 14/ 18 1015.6R
DIAMOND SHLS NC  0850   58 75  340/ 14/ 17 1015.0    4/ 7   3/ 7
CAPE LOOKOUT NC  0900   50     350/ 12/ 15 1015.7R
$$




USA.gov is the U.S. government's official web portal to all federal, state and local government web resources and services.